QPF
0.02 0.02 0.02 0.03 0.05 0.08 0.04 0.02 0.03 0.02 0.02 0.02 0.03 0.03 0.03 0.04 0.06 0.05 0.06 0.05 0.05 0.04 0.04 0.04 0.04 0.03 0.03 0.02 0.03 0.03 0.02 0.03 0.05 0.07 0.08 0.08 0.10 0.09 0.09 0.09 0.12 0.10 0.09
0.02 0.01 0.02 0.01 0.02 0.01 0.01 0.02 0.02 0.02 0.01 0.01 0.02 0.03 0.03 0.05 0.06 0.07 0.07 0.07 0.07 0.06 0.04 0.04 0.05 0.04 0.02 0.02 0.03 0.04 0.03 0.03 0.07 0.10 0.09 0.08 0.10 0.11 0.10 0.09 0.10 0.10 0.09
0.01 0.01 0.00 0.00 0.01 0.01 0.01 0.02 0.02 0.02 0.02 0.03 0.03 0.04 0.05 0.05 0.07 0.07 0.07 0.06 0.06 0.07 0.05 0.04 0.04 0.04 0.03 0.02 0.03 0.05 0.04 0.04 0.08 0.12 0.13 0.11 0.09 0.10 0.12 0.14 0.12 0.11 0.09
0.01 0.01 0.00 0.00 0.01 0.01 0.01 0.02 0.02 0.02 0.03 0.03 0.04 0.05 0.06 0.06 0.05 0.05 0.04 0.04 0.04 0.06 0.05 0.06 0.05 0.04 0.03 0.04 0.05 0.05 0.06 0.05 0.07 0.11 0.14 0.17 0.16 0.11 0.09 0.12 0.13 0.15 0.12
0.02 0.01 0.01 0.01 0.01 0.01 0.01 0.01 0.01 0.01 0.02 0.02 0.02 0.02 0.04 0.03 0.02 0.03 0.03 0.03 0.03 0.03 0.04 0.04 0.05 0.05 0.04 0.04 0.05 0.07 0.07 0.06 0.06 0.07 0.09 0.13 0.15 0.12 0.10 0.07 0.07 0.11 0.11
0.01 0.01 0.01 0.01 0.01 0.00 0.00 0.01 0.01 0.01 0.02 0.02 0.02 0.01 0.01 0.01 0.01 0.02 0.04 0.03 0.02 0.02 0.03 0.05 0.05 0.05 0.04 0.04 0.03 0.05 0.06 0.05 0.06 0.06 0.05 0.06 0.09 0.09 0.09 0.06 0.04 0.05 0.06
0.02 0.01 0.01 0.01 0.01 0.00 0.00 0.00 0.00 0.01 0.01 0.01 0.01 0.01 0.01 0.01 0.00 0.01 0.02 0.02 0.02 0.02 0.04 0.05 0.05 0.06 0.07 0.05 0.05 0.06 0.05 0.04 0.05 0.05 0.05 0.05 0.05 0.05 0.05 0.05 0.03 0.03 0.05
0.01 0.01 0.01 0.01 0.01 0.00 0.00 0.00 0.00 0.01 0.01 0.01 0.01 0.01 0.01 0.01 0.01 0.01 0.01 0.02 0.02 0.02 0.03 0.06 0.08 0.09 0.08 0.07 0.09 0.08 0.05 0.04 0.04 0.04 0.05 0.05 0.06 0.06 0.07 0.07 0.06 0.05 0.06
0.01 0.01 0.01 0.01 0.00 0.00 0.00 0.01 0.01 0.01 0.01 0.01 0.01 0.00 0.00 0.00 0.00 0.00 0.01 0.01 0.01 0.01 0.02 0.03 0.07 0.08 0.07 0.07 0.09 0.10 0.08 0.05 0.05 0.05 0.05 0.04 0.04 0.07 0.08 0.09 0.08 0.08 0.07
0.01 0.01 0.01 0.01 0.00 0.01 0.01 0.01 0.02 0.01 0.00 0.01 0.01 0.01 0.01 0.00 0.00 0.01 0.01 0.01 0.01 0.01 0.01 0.03 0.03 0.03 0.04 0.06 0.09 0.07 0.07 0.06 0.05 0.05 0.06 0.05 0.06 0.06 0.06 0.06 0.07 0.08 0.07
0.01 0.01 0.01 0.01 0.02 0.02 0.01 0.01 0.02 0.01 0.00 0.00 0.00 0.01 0.01 0.00 0.00 0.00 0.00 0.01 0.01 0.02 0.02 0.02 0.01 0.01 0.02 0.03 0.04 0.03 0.03 0.04 0.04 0.04 0.05 0.05 0.06 0.06 0.06 0.05 0.06 0.08 0.08
0.02 0.01 0.01 0.01 0.02 0.02 0.02 0.02 0.02 0.00 0.00 0.00 0.00 0.00 0.00 0.00 0.00 0.00 0.01 0.01 0.01 0.02 0.02 0.01 0.00 0.01 0.02 0.02 0.02 0.03 0.05 0.06 0.05 0.04 0.04 0.04 0.05 0.05 0.06 0.05 0.04 0.04 0.04
0.05 0.02 0.01 0.01 0.01 0.01 0.01 0.01 0.01 0.00 0.00 0.00 0.00 0.00 0.00 0.01 0.01 0.01 0.02 0.02 0.03 0.03 0.02 0.01 0.00 0.01 0.02 0.03 0.04 0.05 0.06 0.06 0.05 0.04 0.04 0.03 0.04 0.03 0.04 0.03 0.03 0.03 0.02
0.05 0.02 0.01 0.01 0.01 0.01 0.01 0.01 0.00 0.00 0.00 0.00 0.00 0.01 0.00 0.01 0.01 0.02 0.02 0.03 0.03 0.03 0.02 0.02 0.01 0.02 0.03 0.03 0.04 0.04 0.04 0.04 0.03 0.03 0.03 0.03 0.03 0.03 0.03 0.02 0.02 0.02 0.02
0.06 0.03 0.02 0.01 0.01 0.01 0.01 0.01 0.01 0.01 0.00 0.01 0.01 0.01 0.01 0.02 0.02 0.03 0.04 0.04 0.03 0.03 0.03 0.03 0.03 0.03 0.03 0.03 0.03 0.03 0.03 0.03 0.02 0.02 0.02 0.03 0.02 0.02 0.02 0.03 0.03 0.02 0.02
0.08 0.11 0.06 0.03 0.02 0.02 0.02 0.01 0.01 0.01 0.01 0.01 0.01 0.02 0.02 0.03 0.04 0.04 0.04 0.03 0.04 0.04 0.03 0.03 0.03 0.03 0.03 0.04 0.04 0.03 0.02 0.02 0.02 0.02 0.02 0.02 0.02 0.01 0.02 0.03 0.03 0.02 0.02
0.07 0.07 0.03 0.03 0.04 0.03 0.03 0.03 0.02 0.02 0.01 0.01 0.02 0.02 0.01 0.03 0.03 0.04 0.04 0.03 0.03 0.03 0.04 0.04 0.03 0.03 0.04 0.05 0.04 0.04 0.02 0.02 0.02 0.02 0.02 0.01 0.01 0.01 0.01 0.01 0.01 0.01 0.01
0.04 0.05 0.06 0.04 0.03 0.03 0.04 0.08 0.05 0.02 0.01 0.02 0.03 0.02 0.01 0.01 0.02 0.02 0.02 0.02 0.02 0.02 0.02 0.03 0.03 0.03 0.04 0.05 0.04 0.03 0.02 0.01 0.01 0.01 0.00 0.00 0.00 0.00 0.01 0.01 0.01 0.01 0.01
0.04 0.08 0.08 0.05 0.05 0.06 0.07 0.08 0.06 0.03 0.03 0.03 0.04 0.03 0.02 0.02 0.02 0.02 0.01 0.01 0.01 0.01 0.01 0.02 0.02 0.02 0.02 0.02 0.02 0.01 0.01 0.01 0.00 0.00 0.01 0.01 0.00 0.01 0.01 0.01 0.01 0.01 0.01
0.05 0.07 0.08 0.07 0.10 0.17 0.17 0.15 0.11 0.07 0.05 0.04 0.05 0.04 0.03 0.03 0.02 0.02 0.01 0.01 0.01 0.01 0.01 0.01 0.01 0.01 0.01 0.01 0.01 0.01 0.01 0.01 0.01 0.01 0.01 0.00 0.00 0.00 0.00 0.00 0.00 0.01 0.01
0.04 0.03 0.03 0.04 0.05 0.08 0.10 0.15 0.13 0.09 0.08 0.08 0.06 0.04 0.03 0.03 0.02 0.02 0.02 0.02 0.02 0.02 0.02 0.01 0.02 0.02 0.02 0.02 0.02 0.02 0.02 0.02 0.01 0.01 0.01 0.01 0.00 0.00 0.00 0.00 0.00 0.01 0.01
0.02 0.02 0.04 0.05 0.07 0.09 0.10 0.09 0.10 0.10 0.10 0.08 0.06 0.05 0.05 0.04 0.04 0.05 0.05 0.05 0.05 0.02 0.02 0.01 0.02 0.02 0.02 0.02 0.02 0.02 0.01 0.01 0.01 0.01 0.01 0.01 0.00 0.00 0.00 0.00 0.00 0.00 0.00
0.04 0.03 0.04 0.05 0.06 0.07 0.07 0.08 0.08 0.08 0.08 0.07 0.06 0.05 0.04 0.04 0.04 0.05 0.04 0.04 0.04 0.02 0.02 0.02 0.02 0.02 0.02 0.03 0.03 0.02 0.01 0.01 0.01 0.01 0.01 0.01 0.01 0.00 0.00 0.00 0.00 0.00 0.00
0.08 0.10 0.09 0.08 0.08 0.07 0.07 0.09 0.09 0.09 0.08 0.07 0.06 0.03 0.03 0.03 0.03 0.03 0.03 0.03 0.03 0.03 0.02 0.02 0.01 0.01 0.02 0.02 0.02 0.02 0.01 0.01 0.01 0.01 0.01 0.01 0.01 0.00 0.00 0.00 0.00 0.00 0.00
0.05 0.07 0.10 0.08 0.07 0.08 0.08 0.10 0.09 0.07 0.07 0.08 0.07 0.05 0.03 0.02 0.02 0.02 0.02 0.02 0.02 0.02 0.01 0.01 0.01 0.01 0.02 0.02 0.02 0.01 0.01 0.01 0.00 0.01 0.01 0.01 0.01 0.01 0.01 0.01 0.01 0.00 0.00
0.03 0.02 0.03 0.03 0.03 0.03 0.03 0.04 0.06 0.07 0.06 0.06 0.06 0.03 0.02 0.01 0.01 0.01 0.01 0.01 0.01 0.01 0.01 0.01 0.01 0.01 0.02 0.01 0.01 0.00 0.00 0.00 0.00 0.00 0.00 0.01 0.01 0.01 0.02 0.01 0.01 0.00 0.00
MSLP
1015.55 1015.68 1015.70 1015.60 1015.42 1015.18 1014.94 1014.77 1014.72 1014.80 1015.01 1015.33 1015.69 1016.03 1016.30 1016.46 1016.50 1016.43 1016.31 1016.17 1016.07 1016.06 1016.14 1016.34 1016.60 1016.92 1017.25 1017.56 1017.83 1018.07 1018.28 1018.47 1018.67 1018.88 1019.09 1019.30 1019.49 1019.64 1019.73 1019.76 1019.73 1019.67 1019.59
1016.25 1016.36 1016.33 1016.16 1015.86 1015.48 1015.11 1014.82 1014.67 1014.70 1014.90 1015.23 1015.62 1016.00 1016.30 1016.47 1016.50 1016.41 1016.24 1016.07 1015.94 1015.91 1016.01 1016.22 1016.52 1016.86 1017.21 1017.52 1017.79 1018.01 1018.19 1018.38 1018.58 1018.81 1019.08 1019.37 1019.66 1019.92 1020.11 1020.23 1020.28 1020.26 1020.20
1016.61 1016.72 1016.68 1016.46 1016.09 1015.64 1015.17 1014.79 1014.58 1014.56 1014.74 1015.08 1015.50 1015.91 1016.24 1016.42 1016.45 1016.35 1016.16 1015.97 1015.84 1015.81 1015.92 1016.14 1016.46 1016.80 1017.14 1017.44 1017.67 1017.85 1018.00 1018.15 1018.35 1018.61 1018.93 1019.31 1019.71 1020.09 1020.42 1020.66 1020.82 1020.88 1020.87
1016.60 1016.73 1016.71 1016.50 1016.12 1015.64 1015.13 1014.71 1014.46 1014.41 1014.58 1014.92 1015.35 1015.78 1016.12 1016.31 1016.35 1016.25 1016.07 1015.88 1015.75 1015.73 1015.84 1016.07 1016.38 1016.72 1017.04 1017.29 1017.48 1017.61 1017.71 1017.83 1018.01 1018.29 1018.66 1019.10 1019.60 1020.10 1020.56 1020.93 1021.21 1021.38 1021.46
1016.30 1016.46 1016.49 1016.34 1016.00 1015.55 1015.05 1014.63 1014.36 1014.30 1014.46 1014.78 1015.21 1015.63 1015.97 1016.17 1016.22 1016.12 1015.95 1015.77 1015.65 1015.64 1015.75 1015.98 1016.29 1016.61 1016.89 1017.11 1017.24 1017.32 1017.38 1017.46 1017.62 1017.89 1018.28 1018.78 1019.34 1019.93 1020.49 1020.98 1021.38 1021.67 1021.86
1015.82 1016.04 1016.15 1016.08 1015.83 1015.44 1015.00 1014.60 1014.34 1014.27 1014.41 1014.71 1015.10 1015.50 1015.83 1016.02 1016.06 1015.97 1015.80 1015.64 1015.53 1015.52 1015.64 1015.87 1016.16 1016.46 1016.72 1016.91 1017.01 1017.05 1017.07 1017.12 1017.25 1017.50 1017.88 1018.38 1018.96 1019.59 1020.21 1020.78 1021.28 1021.68 1021.99
1015.31 1015.61 1015.81 1015.85 1015.70 1015.40 1015.02 1014.67 1014.42 1014.35 1014.46 1014.72 1015.06 1015.42 1015.70 1015.87 1015.89 1015.79 1015.63 1015.47 1015.37 1015.38 1015.49 1015.72 1016.01 1016.30 1016.55 1016.73 1016.82 1016.85 1016.86 1016.89 1016.99 1017.20 1017.54 1018.00 1018.55 1019.16 1019.78 1020.38 1020.93 1021.42 1021.85
1014.87 1015.25 1015.56 1015.70 1015.66 1015.45 1015.15 1014.84 1014.61 1014.52 1014.59 1014.80 1015.08 1015.38 1015.61 1015.73 1015.73 1015.62 1015.46 1015.30 1015.21 1015.21 1015.34 1015.57 1015.86 1016.16 1016.42 1016.61 1016.73 1016.77 1016.78 1016.81 1016.89 1017.05 1017.33 1017.71 1018.18 1018.72 1019.29 1019.86 1020.43 1020.97 1021.48
1014.56 1015.01 1015.41 1015.64 1015.69 1015.56 1015.33 1015.06 1014.85 1014.75 1014.79 1014.94 1015.16 1015.38 1015.55 1015.62 1015.59 1015.46 1015.29 1015.14 1015.05 1015.06 1015.20 1015.43 1015.73 1016.05 1016.35 1016.58 1016.73 1016.82 1016.86 1016.90 1016.97 1017.09 1017.29 1017.58 1017.94 1018.37 1018.84 1019.34 1019.88 1020.43 1021.01
1014.34 1014.86 1015.31 1015.61 1015.73 1015.67 1015.49 1015.26 1015.08 1014.97 1014.98 1015.09 1015.26 1015.42 1015.53 1015.56 1015.49 1015.35 1015.18 1015.03 1014.94 1014.97 1015.10 1015.35 1015.66 1016.00 1016.33 1016.61 1016.82 1016.97 1017.06 1017.13 1017.20 1017.30 1017.43 1017.62 1017.86 1018.16 1018.51 1018.92 1019.39 1019.93 1020.53
1014.14 1014.70 1015.18 1015.51 1015.67 1015.66 1015.53 1015.36 1015.20 1015.12 1015.14 1015.22 1015.36 1015.48 1015.56 1015.56 1015.47 1015.32 1015.15 1015.01 1014.93 1014.95 1015.09 1015.33 1015.65 1016.01 1016.37 1016.69 1016.96 1017.17 1017.32 1017.44 1017.53 1017.61 1017.70 1017.81 1017.95 1018.13 1018.36 1018.66 1019.05 1019.54 1020.14
1013.85 1014.41 1014.89 1015.23 1015.41 1015.44 1015.37 1015.26 1015.18 1015.15 1015.20 1015.31 1015.44 1015.56 1015.63 1015.62 1015.53 1015.39 1015.23 1015.09 1015.02 1015.04 1015.17 1015.40 1015.71 1016.07 1016.43 1016.78 1017.09 1017.34 1017.55 1017.72 1017.85 1017.94 1018.02 1018.08 1018.15 1018.23 1018.36 1018.57 1018.88 1019.31 1019.89
1013.39 1013.92 1014.37 1014.70 1014.89 1014.97 1014.98 1014.96 1014.97 1015.04 1015.17 1015.34 1015.51 1015.66 1015.75 1015.76 1015.69 1015.56 1015.42 1015.29 1015.23 1015.25 1015.36 1015.56 1015.84 1016.16 1016.50 1016.84 1017.16 1017.45 1017.70 1017.91 1018.08 1018.21 1018.30 1018.36 1018.39 1018.42 1018.49 1018.62 1018.85 1019.22 1019.75
1012.73 1013.20 1013.61 1013.91 1014.12 1014.26 1014.36 1014.46 1014.61 1014.80 1015.05 1015.31 1015.56 1015.77 1015.90 1015.94 1015.91 1015.82 1015.70 1015.60 1015.54 1015.55 1015.64 1015.80 1016.02 1016.29 1016.58 1016.87 1017.17 1017.46 1017.73 1017.98 1018.19 1018.37 1018.50 1018.58 1018.62 1018.64 1018.67 1018.75 1018.92 1019.22 1019.68
1011.87 1012.28 1012.64 1012.93 1013.16 1013.37 1013.59 1013.83 1014.14 1014.48 1014.86 1015.24 1015.58 1015.86 1016.05 1016.15 1016.16 1016.11 1016.03 1015.96 1015.92 1015.93 1015.99 1016.10 1016.26 1016.45 1016.66 1016.89 1017.14 1017.39 1017.66 1017.92 1018.18 1018.41 1018.59 1018.72 1018.80 1018.83 1018.85 1018.90 1019.02 1019.26 1019.64
1010.92 1011.26 1011.57 1011.85 1012.13 1012.42 1012.77 1013.17 1013.63 1014.13 1014.65 1015.14 1015.58 1015.93 1016.17 1016.32 1016.38 1016.38 1016.36 1016.32 1016.31 1016.33 1016.37 1016.45 1016.54 1016.65 1016.78 1016.93 1017.10 1017.30 1017.54 1017.81 1018.09 1018.36 1018.60 1018.79 1018.92 1018.99 1019.02 1019.05 1019.13 1019.29 1019.58
1009.98 1010.26 1010.54 1010.83 1011.16 1011.55 1012.01 1012.56 1013.16 1013.80 1014.43 1015.02 1015.53 1015.93 1016.23 1016.42 1016.53 1016.58 1016.61 1016.63 1016.66 1016.70 1016.75 1016.80 1016.85 1016.90 1016.94 1017.01 1017.10 1017.24 1017.44 1017.69 1017.98 1018.28 1018.57 1018.81 1018.99 1019.10 1019.15 1019.17 1019.21 1019.30 1019.50
1009.17 1009.42 1009.69 1010.01 1010.39 1010.87 1011.44 1012.10 1012.81 1013.54 1014.25 1014.89 1015.43 1015.86 1016.17 1016.40 1016.54 1016.65 1016.73 1016.82 1016.90 1016.99 1017.07 1017.13 1017.16 1017.17 1017.16 1017.16 1017.18 1017.26 1017.41 1017.64 1017.92 1018.24 1018.55 1018.83 1019.05 1019.19 1019.26 1019.28 1019.28 1019.31 1019.41
1008.60 1008.85 1009.14 1009.49 1009.93 1010.47 1011.12 1011.84 1012.61 1013.38 1014.10 1014.74 1015.28 1015.69 1016.01 1016.23 1016.41 1016.56 1016.70 1016.85 1017.01 1017.17 1017.30 1017.39 1017.43 1017.43 1017.39 1017.35 1017.33 1017.37 1017.47 1017.66 1017.93 1018.24 1018.56 1018.86 1019.10 1019.27 1019.34 1019.36 1019.33 1019.32 1019.35
1008.34 1008.62 1008.94 1009.33 1009.81 1010.39 1011.07 1011.81 1012.58 1013.32 1014.01 1014.60 1015.08 1015.46 1015.74 1015.95 1016.14 1016.32 1016.51 1016.73 1016.96 1017.19 1017.38 1017.53 1017.61 1017.62 1017.59 1017.54 1017.50 1017.50 1017.58 1017.74 1017.97 1018.27 1018.58 1018.88 1019.13 1019.30 1019.39 1019.41 1019.37 1019.33 1019.31
1008.40 1008.73 1009.09 1009.51 1010.02 1010.61 1011.27 1011.98 1012.69 1013.36 1013.97 1014.47 1014.87 1015.17 1015.40 1015.59 1015.77 1015.97 1016.20 1016.47 1016.76 1017.04 1017.30 1017.50 1017.63 1017.68 1017.68 1017.64 1017.60 1017.59 1017.65 1017.79 1018.00 1018.26 1018.56 1018.84 1019.09 1019.27 1019.36 1019.39 1019.36 1019.32 1019.29
1008.75 1009.14 1009.54 1009.99 1010.50 1011.06 1011.67 1012.30 1012.92 1013.49 1013.97 1014.37 1014.67 1014.89 1015.05 1015.20 1015.36 1015.55 1015.80 1016.09 1016.41 1016.74 1017.04 1017.28 1017.45 1017.55 1017.57 1017.56 1017.54 1017.54 1017.60 1017.72 1017.91 1018.15 1018.42 1018.69 1018.92 1019.09 1019.20 1019.25 1019.25 1019.24 1019.24
1009.33 1009.76 1010.20 1010.66 1011.14 1011.65 1012.19 1012.72 1013.22 1013.66 1014.02 1014.30 1014.50 1014.64 1014.74 1014.83 1014.95 1015.13 1015.35 1015.64 1015.96 1016.29 1016.60 1016.85 1017.05 1017.17 1017.23 1017.26 1017.27 1017.29 1017.35 1017.47 1017.65 1017.86 1018.11 1018.35 1018.57 1018.74 1018.87 1018.95 1018.99 1019.03 1019.09
1010.03 1010.50 1010.95 1011.40 1011.84 1012.28 1012.72 1013.14 1013.52 1013.84 1014.09 1014.27 1014.38 1014.44 1014.48 1014.52 1014.60 1014.73 1014.91 1015.15 1015.43 1015.72 1016.00 1016.24 1016.43 1016.57 1016.65 1016.70 1016.75 1016.80 1016.88 1017.01 1017.18 1017.38 1017.60 1017.82 1018.02 1018.20 1018.33 1018.45 1018.54 1018.64 1018.76
1010.78 1011.26 1011.70 1012.10 1012.49 1012.85 1013.19 1013.50 1013.77 1013.99 1014.14 1014.24 1014.29 1014.30 1014.29 1014.29 1014.32 1014.39 1014.50 1014.67 1014.86 1015.08 1015.29 1015.48 1015.64 1015.77 1015.87 1015.94 1016.02 1016.11 1016.22 1016.36 1016.53 1016.72 1016.92 1017.12 1017.30 1017.47 1017.61 1017.75 1017.89 1018.04 1018.23
1011.48 1011.94 1012.34 1012.69 1013.01 1013.28 1013.53 1013.75 1013.93 1014.07 1014.17 1014.22 1014.23 1014.21 1014.17 1014.13 1014.10 1014.11 1014.14 1014.21 1014.31 1014.42 1014.54 1014.66 1014.77 1014.87 1014.97 1015.06 1015.17 1015.29 1015.43 1015.59 1015.77 1015.95 1016.14 1016.31 1016.46 1016.61 1016.75 1016.89 1017.05 1017.24 1017.47
Thickness
5802 5801 5798 5795 5790 5785 5781 5778 5775 5773 5770 5766 5762 5759 5757 5756 5756 5755 5754 5753 5752 5752 5751 5750 5749 5749 5747 5747 5746 5745 5743 5741 5741 5737 5734 5735 5738 5737 5737 5737 5736 5735 5734
5800 5800 5797 5795 5790 5786 5783 5780 5777 5775 5772 5770 5766 5763 5760 5758 5757 5757 5755 5754 5753 5752 5752 5750 5749 5749 5747 5746 5745 5744 5741 5740 5740 5735 5729 5725 5727 5733 5736 5735 5734 5733 5732
5802 5800 5798 5795 5792 5788 5785 5784 5780 5777 5774 5772 5768 5765 5761 5759 5757 5755 5754 5754 5753 5753 5752 5751 5750 5749 5748 5745 5745 5744 5741 5737 5738 5738 5731 5723 5719 5723 5728 5731 5731 5730 5729
5807 5803 5800 5796 5793 5791 5789 5786 5783 5779 5776 5773 5769 5764 5758 5755 5755 5755 5755 5755 5754 5753 5752 5751 5750 5749 5748 5747 5746 5745 5743 5740 5736 5736 5736 5733 5729 5721 5718 5723 5726 5727 5725
5811 5806 5804 5800 5798 5795 5791 5788 5784 5781 5778 5774 5771 5766 5762 5759 5758 5757 5755 5754 5753 5752 5751 5751 5750 5749 5748 5747 5746 5745 5743 5741 5738 5736 5734 5732 5729 5727 5719 5715 5718 5720 5721
5815 5811 5808 5803 5799 5797 5793 5789 5785 5781 5779 5776 5772 5768 5764 5761 5758 5756 5753 5752 5751 5751 5751 5750 5749 5748 5747 5746 5745 5744 5743 5741 5739 5737 5735 5732 5727 5724 5721 5716 5714 5713 5715
5816 5811 5806 5802 5799 5797 5793 5790 5786 5782 5780 5777 5773 5770 5766 5763 5759 5756 5753 5751 5750 5749 5749 5749 5747 5747 5745 5744 5744 5742 5741 5740 5738 5736 5735 5733 5731 5729 5724 5718 5714 5711 5711
5818 5814 5810 5807 5803 5800 5796 5792 5788 5784 5781 5778 5774 5772 5768 5764 5760 5758 5755 5752 5750 5749 5749 5748 5746 5745 5744 5743 5741 5740 5739 5737 5736 5736 5734 5733 5731 5730 5726 5721 5714 5708 5705
5819 5816 5813 5811 5807 5803 5799 5796 5790 5786 5782 5779 5775 5772 5769 5765 5761 5758 5756 5753 5751 5749 5748 5746 5744 5743 5741 5740 5739 5736 5735 5734 5733 5732 5731 5730 5729 5728 5726 5722 5718 5710 5701
5819 5818 5816 5813 5810 5806 5802 5798 5793 5788 5784 5781 5777 5773 5769 5765 5762 5758 5754 5752 5750 5748 5746 5744 5742 5740 5738 5737 5735 5733 5731 5730 5729 5728 5727 5726 5725 5724 5722 5720 5717 5713 5706
5821 5820 5818 5815 5812 5807 5802 5797 5793 5789 5785 5781 5777 5772 5768 5765 5761 5757 5754 5751 5748 5746 5744 5742 5739 5737 5735 5733 5731 5728 5727 5725 5724 5723 5722 5721 5721 5718 5717 5715 5712 5708 5704
5823 5821 5818 5813 5809 5805 5802 5798 5794 5790 5787 5783 5777 5773 5768 5764 5759 5756 5753 5750 5747 5744 5741 5739 5736 5734 5731 5729 5727 5724 5722 5720 5718 5717 5717 5715 5715 5713 5711 5708 5706 5703 5700
5821 5818 5814 5811 5808 5804 5801 5798 5794 5791 5787 5783 5777 5771 5766 5762 5757 5754 5750 5747 5744 5741 5738 5735 5732 5729 5727 5725 5723 5720 5717 5715 5714 5712 5711 5709 5709 5706 5704 5702 5699 5696 5694
5818 5814 5810 5809 5807 5805 5801 5798 5794 5791 5787 5782 5775 5770 5765 5761 5756 5752 5748 5744 5740 5737 5734 5731 5728 5725 5723 5721 5718 5715 5712 5710 5708 5707 5705 5704 5702 5699 5698 5695 5692 5689 5685
5815 5813 5809 5807 5806 5803 5799 5796 5793 5790 5786 5779 5773 5768 5764 5760 5755 5750 5745 5740 5737 5733 5729 5726 5723 5721 5718 5716 5713 5710 5707 5704 5702 5700 5699 5698 5697 5694 5692 5689 5685 5682 5678
5813 5812 5810 5807 5804 5800 5796 5793 5790 5787 5783 5777 5771 5766 5761 5756 5751 5746 5740 5736 5732 5728 5725 5721 5718 5715 5713 5710 5708 5705 5701 5698 5695 5693 5691 5690 5688 5687 5685 5683 5680 5677 5671
5812 5810 5808 5806 5803 5800 5797 5792 5788 5785 5780 5774 5769 5763 5758 5752 5747 5742 5736 5732 5727 5723 5719 5716 5712 5709 5706 5705 5702 5699 5695 5692 5688 5686 5683 5682 5680 5678 5676 5673 5671 5668 5665
5812 5810 5808 5804 5802 5799 5796 5791 5785 5780 5775 5770 5765 5760 5755 5750 5744 5739 5733 5728 5723 5719 5714 5710 5706 5703 5701 5699 5696 5693 5689 5685 5682 5679 5676 5673 5671 5670 5667 5664 5661 5657 5655
5815 5811 5809 5805 5800 5795 5791 5785 5779 5774 5769 5764 5760 5756 5751 5745 5740 5734 5729 5724 5719 5714 5709 5705 5701 5697 5694 5692 5690 5687 5682 5677 5674 5671 5669 5666 5663 5661 5659 5655 5651 5648 5645
5811 5808 5805 5801 5796 5791 5786 5778 5772 5767 5763 5760 5755 5751 5746 5741 5735 5730 5725 5720 5715 5709 5704 5699 5695 5691 5687 5685 5683 5680 5675 5669 5666 5663 5660 5658 5655 5653 5650 5646 5642 5638 5635
5806 5803 5799 5794 5790 5786 5780 5772 5766 5761 5759 5756 5751 5746 5741 5736 5731 5725 5720 5714 5708 5702 5697 5692 5688 5684 5681 5678 5675 5672 5668 5663 5659 5655 5652 5649 5648 5645 5642 5639 5635 5631 5627
5796 5794 5789 5783 5781 5780 5774 5766 5761 5758 5754 5749 5744 5739 5735 5730 5725 5719 5713 5707 5701 5695 5690 5685 5680 5677 5674 5671 5668 5665 5661 5658 5653 5648 5645 5643 5640 5638 5634 5631 5628 5624 5620
5787 5784 5780 5774 5772 5770 5767 5760 5755 5752 5747 5741 5736 5732 5727 5723 5718 5712 5706 5701 5694 5689 5684 5678 5673 5669 5666 5664 5661 5658 5654 5651 5646 5642 5640 5637 5633 5630 5626 5623 5620 5616 5611
5777 5775 5771 5766 5762 5761 5758 5755 5751 5746 5740 5734 5729 5724 5719 5714 5709 5705 5700 5694 5688 5683 5678 5673 5668 5664 5660 5656 5653 5650 5646 5643 5639 5635 5632 5629 5625 5621 5618 5614 5611 5607 5603
5768 5766 5762 5758 5754 5751 5749 5747 5743 5739 5732 5727 5721 5716 5711 5705 5700 5695 5690 5687 5683 5680 5675 5670 5666 5660 5655 5652 5649 5644 5640 5636 5632 5627 5623 5619 5615 5611 5607 5604 5601 5598 5594
5758 5756 5753 5750 5746 5743 5741 5738 5735 5731 5725 5718 5713 5709 5703 5697 5692 5686 5680 5678 5675 5673 5670 5666 5662 5657 5653 5648 5643 5639 5635 5630 5626 5620 5615 5610 5606 5603 5599 5596 5592 5589 5586